Content
SEND FEEDBACK

Daily
Averages
Monthly
Summary
United States of America

MANGILAO, GUAM


Home > North America > United States > Guam
Elevation: 60 feet     Latitude: 13 27N     Longitude: 144 49E

WEATHER
 
SELECT A DAY
Number of Records: 341,631;   Date Range: 1/1/95 - 7/20/14
 
SHARE

PRINT THIS DATA

[ ← Previous Day ]
WEATHER ALMANAC - MARCH 25, 2013
[ Next Day → ]
[ °C ]   °F
Weather ElementAverageHighLow
Temperature79.4 °F84.6 °F (12:55 pm)77 °F (2:08 am)
Dewpoint71.1 °F73.4 °F (3:11 am)66.6 °F (7:55 am)
Humidity75.8 %89 % (3:25 am)61 % (9:55 am)
Barometer29.84 in29.90 in (10:37 pm)29.78 in (2:55 pm)
Wind Speed15.7 mph23 mph (7:55 am)
Wind Gust31.1 mph (7:09 am)
Weather ElementAverage
Visibility10 mi
Wind DirectionENE (72.9 °)

Weather ElementTotal
Precipitation---
Cooling Degree Days15.8 (Base 65)
Growing Degree Days30.8 (Base 50)
Averaged from 56 records on March 25, 2013
WEATHER CONDITIONS BREAKOUT
WIND DIRECTION BREAKOUT
WEATHER BY HOUR - MARCH 25, 2013
[ °C ]   °F
Local TimeTemperatureDewpointHumidityBarometerVisibilityWind DirectionWind SpeedGust SpeedPrecipitationEventsConditions
1:55 AM77.7 °F72.3 °F83 %29.83 in10.0 miENE (70°)18.4 mphPartly Cloudy
2:08 AM77.0 °F71.6 °F83 %29.82 in10.0 miENE (70°)15.0 mphMostly Cloudy
2:55 AM77.9 °F72.9 °F84 %29.81 in10.0 miENE (70°)13.8 mphMostly Cloudy
3:11 AM78.8 °F73.4 °F83 %29.81 in10.0 miEast (80°)17.3 mphMostly Cloudy
3:18 AM78.8 °F73.4 °F83 %29.81 in10.0 miEast (80°)16.1 mphMostly Cloudy
3:25 AM77.0 °F73.4 °F89 %29.81 in10.0 miENE (70°)13.8 mphMostly Cloudy
3:33 AM77.0 °F73.4 °F89 %29.81 in10.0 miENE (60°)12.7 mphMostly Cloudy
3:37 AM77.0 °F73.4 °F89 %29.81 in10.0 miENE (70°)17.3 mphScattered Clouds
3:55 AM77.4 °F72.0 °F83 %29.81 in10.0 miENE (70°)18.4 mphPartly Cloudy
4:55 AM77.4 °F71.2 °F81 %29.81 in10.0 miENE (70°)18.4 mphPartly Cloudy
5:55 AM77.5 °F71.6 °F82 %29.82 in10.0 miENE (60°)19.6 mphScattered Clouds
6:46 AM77.0 °F69.8 °F78 %29.83 in10.0 miEast (80°)20.7 mph26.5 mphMostly Cloudy
6:51 AM77.0 °F71.6 °F83 %29.84 in9.0 miEast (80°)18.4 mphRainLight Rain
6:55 AM77.5 °F70.3 °F78 %29.84 in9.0 miEast (90°)19.6 mph25.3 mphLight Drizzle
7:01 AM77.0 °F68.0 °F74 %29.84 in10.0 miEast (80°)21.9 mph26.5 mphMostly Cloudy
7:09 AM78.8 °F69.8 °F74 %29.85 in10.0 miEast (80°)19.6 mph31.1 mphMostly Cloudy
7:55 AM79.7 °F66.6 °F64 %29.86 in10.0 miEast (80°)23.0 mph26.5 mph0.00 inOvercast
8:55 AM82.2 °F67.8 °F62 %29.87 in10.0 miEast (90°)16.1 mph23.0 mphClear
9:55 AM83.1 °F68.2 °F61 %29.87 in10.0 miEast (90°)19.6 mphClear
10:55 AM83.8 °F70.0 °F63 %29.86 in10.0 miEast (80°)17.3 mph25.3 mphPartly Cloudy
11:55 AM84.4 °F70.5 °F63 %29.84 in10.0 miENE (70°)17.3 mphClear
12:55 PM84.6 °F70.5 °F63 %29.81 in10.0 miENE (70°)17.3 mph21.9 mphClear
1:55 PM84.2 °F70.5 °F63 %29.79 in10.0 miEast (80°)18.4 mphClear
2:55 PM83.8 °F71.2 °F66 %29.78 in10.0 miENE (60°)15.0 mphPartly Cloudy
3:55 PM82.6 °F71.2 °F68 %29.78 in10.0 miEast (80°)16.1 mphPartly Cloudy
4:42 PM80.6 °F71.6 °F74 %29.79 in10.0 miENE (70°)15.0 mphRainLight Rain
4:45 PM80.6 °F71.6 °F74 %29.79 in10.0 miENE (70°)16.1 mphRainLight Rain
4:49 PM80.6 °F71.6 °F74 %29.79 in10.0 miENE (70°)16.1 mphRainLight Rain
4:51 PM80.6 °F69.8 °F70 %29.79 in10.0 miENE (70°)16.1 mphMostly Cloudy
4:55 PM79.9 °F70.3 °F73 %29.79 in10.0 miEast (80°)18.4 mph0.00 inMostly Cloudy
5:03 PM80.6 °F71.6 °F74 %29.79 in10.0 miENE (70°)15.0 mphMostly Cloudy
5:09 PM80.6 °F71.6 °F74 %29.79 in10.0 miENE (60°)13.8 mphMostly Cloudy
5:27 PM80.6 °F69.8 °F70 %29.79 in10.0 miENE (70°)16.1 mphMostly Cloudy
5:29 PM80.6 °F69.8 °F70 %29.80 in10.0 miEast (80°)16.1 mphMostly Cloudy
5:31 PM80.6 °F69.8 °F70 %29.80 in10.0 miEast (80°)17.3 mphMostly Cloudy
5:55 PM79.7 °F70.0 °F72 %29.81 in10.0 miEast (90°)13.8 mphPartly Cloudy
6:55 PM78.8 °F70.7 °F76 %29.82 in10.0 miENE (70°)15.0 mphScattered Clouds
7:55 PM78.6 °F70.3 °F76 %29.85 in10.0 miENE (70°)12.7 mphScattered Clouds
8:22 PM78.8 °F71.6 °F78 %29.86 in10.0 miENE (70°)16.1 mphMostly Cloudy
8:49 PM78.8 °F71.6 °F78 %29.87 in10.0 miENE (70°)12.7 mph24.2 mphScattered Clouds
8:55 PM78.6 °F70.5 °F76 %29.87 in10.0 miENE (70°)15.0 mph24.2 mphPartly Cloudy
9:22 PM78.8 °F71.6 °F78 %29.88 in10.0 miENE (60°)12.7 mphMostly Cloudy
9:28 PM78.8 °F71.6 °F78 %29.88 in10.0 miENE (60°)13.8 mphScattered Clouds
9:33 PM78.8 °F71.6 °F78 %29.88 in10.0 miENE (60°)12.7 mphMostly Cloudy
9:48 PM78.8 °F71.6 °F78 %29.88 in10.0 miENE (70°)16.1 mphScattered Clouds
9:55 PM78.3 °F70.7 °F77 %29.88 in10.0 miENE (70°)13.8 mphScattered Clouds
10:37 PM78.8 °F71.6 °F78 %29.90 in10.0 miEast (80°)15.0 mphMostly Cloudy
10:39 PM78.8 °F71.6 °F78 %29.90 in10.0 miEast (80°)15.0 mphScattered Clouds
10:55 PM77.9 °F71.6 °F81 %29.89 in10.0 miENE (70°)12.7 mphScattered Clouds
11:10 PM78.8 °F71.6 °F78 %29.89 in10.0 miEast (80°)11.5 mphMostly Cloudy
11:12 PM78.8 °F71.6 °F78 %29.89 in10.0 miENE (70°)11.5 mphScattered Clouds
11:13 PM78.8 °F71.6 °F78 %29.89 in10.0 miENE (70°)11.5 mphMostly Cloudy
11:25 PM78.8 °F71.6 °F78 %29.89 in10.0 miENE (70°)12.7 mphScattered Clouds
11:26 PM78.8 °F71.6 °F78 %29.89 in10.0 miENE (70°)12.7 mphMostly Cloudy
11:29 PM78.8 °F71.6 °F78 %29.88 in10.0 miENE (60°)10.4 mphScattered Clouds
11:55 PM77.5 °F71.4 °F81 %29.88 in10.0 miENE (70°)10.4 mphScattered Clouds
Hourly data recorded from PGUA, located miles away from Mangilao, Guam







STORIES FROM OUR PARTNERS